Location: Unspecified
(43.4680°N, 87.1740°E)
Time: 20:17:19
(UTC+00:00)

ATLAS 2AS CENTAUR R/B - Pass Details

Date: 17 April 2021
Orbit: 949 x 1263 km, 63.7° (Epoch: 07 May)

Event Time Altitude Azimuth Distance (km) Brightness Sun altitude
Rises 15:20:25 0° 243° (WSW) 4,202 6.1 -23.4°
Reaches altitude 10° 15:23:26 10° 251° (WSW) 3,244 5.5 -23.8°
Maximum altitude 15:30:47 41° 319° (NW) 1,754 4.3 -24.7°
Drops below altitude 10° 15:38:01 10° 28° (NNE) 3,179 5.4 -25.6°
Sets 15:40:58 0° 36° (NE) 4,110 5.9 -26.0°
